| time (UTC) | temp F | wind direction | speed knots | gust knots | rain 1hr in | rain 24hr in | rain mn in | humidity % | barometer mb |
| 20260508090013 | 47 | 344 | 3.5 | 9.6 | 0.00 | 0.54 | 0.00 | 62 | 1009.3 |
| 20260508084516 | 47 | 14 | 1.7 | 8.7 | 0.00 | 0.54 | 0.00 | 61 | 1009.0 |
| 20260508083034 | 48 | 351 | 2.6 | 7.8 | 0.00 | 0.54 | 0.00 | 60 | 1008.7 |
| 20260508081540 | 48 | 14 | 3.5 | 8.7 | 0.00 | 0.54 | 0.00 | 62 | 1008.7 |
| 20260508080026 | 48 | 335 | 0.9 | 7.0 | 0.00 | 0.56 | 0.00 | 61 | 1008.3 |
| 20260508074515 | 48 | 350 | 1.7 | 4.3 | 0.00 | 0.56 | 0.00 | 60 | 1008.1 |
| 20260508073011 | 48 | 342 | 1.7 | 4.3 | 0.00 | 0.56 | 0.00 | 58 | 1007.9 |
| 20260508071520 | 49 | 345 | 1.7 | 5.2 | 0.00 | 0.56 | 0.00 | 57 | 1007.9 |
| 20260508070033 | 50 | 358 | 2.6 | 7.8 | 0.00 | 0.56 | 0.00 | 55 | 1007.8 |
| 20260508064604 | 50 | 354 | 3.5 | 7.8 | 0.00 | 0.56 | 0.00 | 56 | 1007.6 |
| 20260508063030 | 51 | 23 | 3.5 | 9.6 | 0.00 | 0.56 | 0.00 | 52 | 1007.7 |
| 20260508061522 | 51 | 16 | 3.5 | 8.7 | 0.00 | 0.56 | 0.00 | 53 | 1007.6 |
| 20260508060054 | 51 | 6 | 3.5 | 9.6 | 0.00 | 0.56 | 0.00 | 50 | 1007.6 |
| 20260508054603 | 52 | 2 | 4.3 | 9.6 | 0.00 | 0.56 | 0.00 | 49 | 1007.7 |
| 20260508053018 | 52 | 345 | 3.5 | 10.4 | 0.00 | 0.56 | 0.00 | 49 | 1007.7 |
| 20260508051522 | 53 | 355 | 3.5 | 9.6 | 0.00 | 0.56 | 0.00 | 49 | 1007.9 |
| 20260508050025 | 53 | 325 | 6.1 | 12.2 | 0.00 | 0.56 | 0.00 | 47 | 1007.7 |
| 20260508044524 | 53 | 4 | 5.2 | 13.0 | 0.00 | 0.56 | 0.00 | 50 | 1007.7 |
| 20260508043037 | 54 | 345 | 3.5 | 10.4 | 0.00 | 0.56 | 0.00 | 47 | 1007.6 |
| 20260508041517 | 54 | 355 | 4.3 | 12.2 | 0.00 | 0.56 | 0.00 | 46 | 1007.6 |
| 20260508040049 | 54 | 345 | 4.3 | 10.4 | 0.00 | 0.56 | 0.56 | 47 | 1007.7 |
| 20260508034548 | 54 | 10 | 3.5 | 10.4 | 0.00 | 0.56 | 0.56 | 46 | 1007.7 |
| 20260508033101 | 54 | 347 | 3.5 | 8.7 | 0.00 | 0.56 | 0.56 | 46 | 1007.6 |
| 20260508031520 | 54 | 360 | 2.6 | 11.3 | 0.00 | 0.56 | 0.56 | 45 | 1007.7 |
| 20260508030023 | 54 | 355 | 4.3 | 10.4 | 0.00 | 0.56 | 0.56 | 46 | 1007.9 |
| 20260508024502 | 54 | 2 | 3.5 | 9.6 | 0.00 | 0.56 | 0.56 | 47 | 1008.0 |
| 20260508023002 | 55 | 346 | 5.2 | 12.2 | 0.00 | 0.56 | 0.56 | 46 | 1007.9 |
| 20260508021505 | 55 | 360 | 4.3 | 11.3 | 0.00 | 0.56 | 0.56 | 47 | 1007.9 |
| 20260508020109 | 55 | 2 | 4.3 | 10.4 | 0.00 | 0.56 | 0.56 | 47 | 1007.8 |
| 20260508014628 | 56 | 347 | 2.6 | 11.3 | 0.00 | 0.56 | 0.56 | 48 | 1007.8 |
| 20260508013014 | 56 | 354 | 4.3 | 11.3 | 0.00 | 0.56 | 0.56 | 49 | 1007.6 |
| 20260508011528 | 56 | 342 | 5.2 | 14.8 | 0.00 | 0.56 | 0.56 | 48 | 1007.3 |
| 20260508010037 | 57 | 333 | 4.3 | 13.0 | 0.00 | 0.56 | 0.56 | 47 | 1007.3 |
| 20260508004525 | 57 | 337 | 5.2 | 10.4 | 0.00 | 0.56 | 0.56 | 48 | 1007.1 |
| 20260508003024 | 58 | 300 | 3.5 | 10.4 | 0.00 | 0.56 | 0.56 | 45 | 1007.1 |
| 20260508001520 | 58 | 360 | 4.3 | 11.3 | 0.00 | 0.56 | 0.56 | 43 | 1005.9 |
| 20260507234545 | 59 | 343 | 3.5 | 12.2 | 0.00 | 0.63 | 0.56 | 41 | 1005.9 |
| 20260507233055 | 60 | 8 | 3.5 | 9.6 | 0.00 | 0.63 | 0.56 | 43 | 1005.9 |
| 20260507231524 | 61 | 345 | 3.5 | 13.0 | 0.00 | 0.63 | 0.56 | 41 | 1005.7 |
| 20260507230039 | 61 | 16 | 4.3 | 11.3 | 0.00 | 0.70 | 0.56 | 43 | 1005.5 |
| 20260507224512 | 58 | 356 | 1.7 | 7.0 | 0.00 | 0.70 | 0.56 | 65 | 1005.3 |
| 20260507223100 | 57 | 285 | 4.3 | 12.2 | 0.00 | 0.70 | 0.56 | 73 | 1005.3 |
| 20260507221540 | 56 | 124 | 5.2 | 14.8 | 0.00 | 0.70 | 0.56 | 76 | 1005.5 |
| 20260507220020 | 55 | 243 | 10.4 | 20.9 | 0.00 | 0.70 | 0.56 | 76 | 1005.4 |
| 20260507214513 | 55 | 239 | 10.4 | 19.1 | 0.00 | 0.70 | 0.56 | 75 | 1005.2 |
| 20260507213036 | 56 | 248 | 9.6 | 17.4 | 0.00 | 0.70 | 0.56 | 76 | 1005.2 |
| 20260507211535 | 55 | 124 | 12.2 | 21.7 | 0.00 | 0.70 | 0.56 | 75 | 1005.1 |
| 20260507210013 | 56 | 257 | 10.4 | 20.0 | 0.00 | 0.70 | 0.56 | 74 | 1005.1 |
| 20260507204522 | 56 | 258 | 7.8 | 14.8 | 0.00 | 0.70 | 0.56 | 73 | 1004.9 |
| 20260507203005 | 55 | 235 | 9.6 | 17.4 | 0.00 | 0.70 | 0.56 | 74 | 1005.0 |
| 20260507201556 | 55 | 124 | 12.2 | 19.1 | 0.00 | 0.70 | 0.56 | 74 | 1005.0 |
| 20260507200035 | 55 | 252 | 7.8 | 15.6 | 0.00 | 0.70 | 0.56 | 76 | 1005.0 |
| 20260507194538 | 55 | 250 | 10.4 | 21.7 | 0.00 | 0.70 | 0.56 | 77 | 1005.2 |
| 20260507193027 | 55 | 124 | 12.2 | 18.2 | 0.00 | 0.70 | 0.56 | 75 | 1005.5 |
| 20260507191519 | 56 | 254 | 12.2 | 18.2 | 0.00 | 0.70 | 0.56 | 76 | 1005.8 |
| 20260507190035 | 55 | 124 | 12.2 | 19.1 | 0.00 | 0.70 | 0.56 | 78 | 1006.0 |
| 20260507184534 | 55 | 262 | 12.2 | 20.0 | 0.00 | 0.70 | 0.56 | 80 | 1006.2 |
| 20260507183049 | 55 | 124 | 11.3 | 21.7 | 0.00 | 0.70 | 0.56 | 83 | 1006.4 |
| 20260507181543 | 55 | 269 | 9.6 | 20.9 | 0.00 | 0.70 | 0.56 | 83 | 1006.5 |
| 20260507180050 | 55 | 266 | 12.2 | 24.3 | 0.00 | 0.70 | 0.56 | 83 | 1006.6 |
| 20260507174519 | 56 | 262 | 11.3 | 19.1 | 0.00 | 0.70 | 0.56 | 84 | 1006.6 |
| 20260507173003 | 56 | 235 | 8.7 | 13.9 | 0.00 | 0.70 | 0.56 | 83 | 1006.8 |
| 20260507171510 | 55 | 124 | 6.1 | 15.6 | 0.00 | 0.70 | 0.56 | 84 | 1007.1 |
| 20260507164551 | 55 | 124 | 8.7 | 13.9 | 0.00 | 0.70 | 0.56 | 83 | 1007.4 |
| 20260507163111 | 56 | 228 | 7.8 | 13.0 | 0.00 | 0.70 | 0.56 | 81 | 1007.4 |
| 20260507161603 | 57 | 314 | 6.1 | 13.0 | 0.00 | 0.70 | 0.56 | 82 | 1007.6 |
| 20260507160059 | 59 | 267 | 0.9 | 7.0 | 0.00 | 0.70 | 0.56 | 72 | 1007.6 |
| 20260507154541 | 59 | 300 | 3.5 | 6.1 | 0.00 | 0.70 | 0.56 | 69 | 1007.9 |
| 20260507153106 | 58 | 326 | 0.0 | 4.3 | 0.00 | 0.70 | 0.56 | 74 | 1008.0 |
| 20260507151509 | 57 | 360 | 1.7 | 6.1 | 0.00 | 0.70 | 0.56 | 76 | 1008.0 |
| 20260507150035 | 56 | 19 | 2.6 | 6.1 | 0.00 | 0.70 | 0.56 | 81 | 1008.1 |
| 20260507144531 | 55 | 341 | 2.6 | 7.8 | 0.00 | 0.70 | 0.56 | 81 | 1007.9 |
| 20260507143011 | 53 | 337 | 1.7 | 6.1 | 0.00 | 0.70 | 0.56 | 86 | 1008.1 |
| 20260507141504 | 53 | 310 | 2.6 | 7.0 | 0.00 | 0.70 | 0.56 | 88 | 1008.2 |
| 20260507140108 | 52 | 325 | 1.7 | 7.8 | 0.00 | 0.70 | 0.56 | 92 | 1008.5 |
| 20260507134553 | 51 | 353 | 0.9 | 5.2 | 0.00 | 0.70 | 0.56 | 89 | 1008.3 |
| 20260507133101 | 51 | 355 | 0.9 | 4.3 | 0.00 | 0.70 | 0.56 | 90 | 1008.3 |
| 20260507131535 | 50 | 35 | 0.9 | 6.1 | 0.01 | 0.70 | 0.56 | 89 | 1008.2 |
| 20260507130024 | 49 | 35 | 1.7 | 6.1 | 0.03 | 0.70 | 0.56 | 89 | 1008.1 |
| 20260507124547 | 49 | 27 | 1.7 | 6.1 | 0.03 | 0.70 | 0.56 | 89 | 1008.2 |
| 20260507123036 | 49 | 8 | 3.5 | 9.6 | 0.03 | 0.70 | 0.56 | 90 | 1008.5 |
| 20260507121539 | 48 | 12 | 3.5 | 8.7 | 0.04 | 0.69 | 0.55 | 90 | 1008.8 |
| 20260507120049 | 48 | 26 | 3.5 | 8.7 | 0.04 | 0.67 | 0.53 | 90 | 1008.1 |
| 20260507114529 | 49 | 19 | 4.3 | 11.3 | 0.04 | 0.67 | 0.53 | 91 | 1008.3 |
| 20260507113108 | 49 | 6 | 4.3 | 13.0 | 0.05 | 0.67 | 0.53 | 91 | 1008.2 |
| 20260507111605 | 49 | 347 | 4.3 | 13.9 | 0.03 | 0.65 | 0.51 | 91 | 1008.9 |
| 20260507110025 | 49 | 16 | 4.3 | 11.3 | 0.01 | 0.63 | 0.49 | 91 | 1007.8 |
| 20260507104527 | 49 | 4 | 5.2 | 9.6 | 0.03 | 0.63 | 0.49 | 92 | 1007.3 |
| 20260507103116 | 49 | 17 | 7.0 | 13.0 | 0.05 | 0.62 | 0.48 | 93 | 1007.4 |
| 20260507101609 | 50 | 345 | 8.7 | 15.6 | 0.09 | 0.62 | 0.48 | 94 | 1007.1 |
| 20260507100107 | 51 | 331 | 7.0 | 13.9 | 0.14 | 0.62 | 0.48 | 95 | 1007.0 |
| 20260507094606 | 51 | 360 | 7.0 | 12.2 | 0.16 | 0.60 | 0.46 | 96 | 1006.6 |
| 20260507093105 | 51 | 343 | 5.2 | 12.2 | 0.17 | 0.56 | 0.43 | 96 | 1006.6 |
| 20260507091546 | 51 | 353 | 2.6 | 11.3 | 0.26 | 0.52 | 0.38 | 96 | 1006.9 |